Regional Weather Roundup
Issued by NWS Green Bay, WI

Home | Current Version | Previous Version | Text Only | Print | Product List | Glossary On
Versions: 1 2 3 4 5 6 7 8 9 10 11 12 13 14 15 16 17 18 19 20 21 22 23 24 25 26 27 28 29 30 31 32 33 34 35 36 37 38 39 40 41 42 43 44 45 46 47 48 49 50
000
ASUS43 KGRB 230710
RWRGRB

NORTH-CENTRAL AND NORTHEAST WISCONSIN REGIONAL WEATHER ROUNDUP
NATIONAL WEATHER SERVICE GREEN BAY WI
200 AM CDT SAT AUG 23 2014

WIZ005-009-010>012-018-019-230800-
NORTH CENTRAL WISCONSIN

CITY           SKY/WX    TMP DP  RH WIND       PRES   REMARKS
IRONWOOD       NOT AVBL
MANITOWISH WTR CLOUDY    64  64 100 NE3       30.05S
ARBOR VITAE    FOG       67  65  92 CALM      30.05S VSB 1/2
EAGLE RIVER    DRZL/FOG  69  69 100 CALM      30.04S VSB 1/4
LAND O LAKES   CLOUDY    68  68 100 CALM      30.06S FOG
RHINELANDER    FOG       68  68 100 CALM      30.05S VSB 1/2
PHILLIPS       CLOUDY    65  65 100 N3        30.04S FOG
ANTIGO         CLOUDY    68  68  99 E6        30.03F FOG
TOMAHAWK       CLOUDY    68  67  96 CALM      30.04F FOG
MERRILL        FOG       70  70 100 CALM      30.02F VSB 1/2
$$

WIZ013-073-230800-
NORTHEAST WISCONSIN

CITY           SKY/WX    TMP DP  RH WIND       PRES   REMARKS
IRON MOUNTAIN  LGT RAIN  68  66  93 CALM      30.03R FOG
MARINETTE      CLOUDY    66  64  94 CALM      30.00F
OCONTO         CLOUDY    68  68 100 CALM      30.01S
$$

WIZ017-030-035>037-045-230800-
CENTRAL WISCONSIN

CITY           SKY/WX    TMP DP  RH WIND       PRES   REMARKS
MEDFORD        CLOUDY    68  68  99 N5        30.02F FOG
WAUSAU         CLOUDY    72  70  93 E3        30.00F FOG
MOSINEE        CLOUDY    70  70 100 E3        30.01S FOG
MARSHFIELD     CLOUDY    74  72  93 E5        29.99F FOG
WISC RAPIDS    CLOUDY    73  71  93 NE5       30.00S
STEVENS POINT  CLOUDY    69  68  97 E3        30.00F FOG
WAUPACA          N/A     72  71  95 NE5       30.00S FOG
SHAWANO        CLOUDY    72  69  92 E3        30.02F FOG
CLINTONVILLE   CLOUDY    70  68  94 E3        30.01S FOG
$$

WIZ038-039-048-051-230800-
FOX VALLEY

CITY           SKY/WX    TMP DP  RH WIND       PRES   REMARKS
NWS GREEN BAY  LGT RAIN  69  68  96 CALM      30.01S FOG
APPLETON       CLOUDY    70  68  94 E3        30.01S FOG
OSHKOSH        MOCLDY    71  70  96 E3        29.99S FOG
FOND DU LAC    LGT RAIN  72  69  90 CALM      30.00R FOG
$$

WIZ022-050-052-230800-
EAST CENTRAL WISCONSIN

CITY           SKY/WX    TMP DP  RH WIND       PRES   REMARKS
STURGEON BAY   MOCLDY    68  64  88 E5        30.02S
MANITOWOC      FOG       66  66 100 CALM      30.00F VSB 1/4
SHEBOYGAN      FOG       68  67  96 CALM      29.99F VSB 1/4
$$

LMZ563-521-522-541>543-230800-
LAKESHORE

STATION/POSITION TIME  TEMP    WIND        PRES    VSBY  WAVE
                       AIR SEA DIR/SP/G                  HT/PER
                 (UTC) (F)     (DEG/KT/KT) (MB)    (MI)  (FT/S)
SHEBOYGAN LKSHOR 0700   67 66   10/  3/  3 1015.6F
KEWAUNEE LKSHORE 0700   67      20/  2/  4 1015.2S
NORTHPORT PIER   0700   67     140/  1/  2 1016.3S
N MID LAKE BUOY  0700   68 65  140/  8/  8 1015.7F         1
S GREEN BAY BUOY 0700   70     VRB  4      1017.1S
SISTER BAY LKSHO 0600   68        CALM       N/A
CHAMBERS ISLAND  0700   67        CALM     1016.3S
MENOMINEE LKSHOR 0700   68     360/  4/  4 1016.8F
$$



USA.gov is the U.S. government's official web portal to all federal, state and local government web resources and services.